Weather History for KDOV - April, 2013

Change the Weather History Date:

Monday, April 29, 2013

  Actual Average Record
Temperature  
Mean Temperature 55 °F -  
Max Temperature 58 °F 68 °F 88 °F (1974)
Min Temperature 51 °F 45 °F 35 °F (1963)
Degree Days  
Heating Degree Days 10    
Growing Degree Days 5 (Base 50)    
Moisture  
Dew Point 56 °F    
Average Humidity 100    
Maximum Humidity 100    
Minimum Humidity 88    
Precipitation  
Precipitation 0.59 in - - ()
Sea Level Pressure  
Sea Level Pressure 30.14 in    
Wind  
Wind Speed 7 mph (ESE)    
Max Wind Speed 17 mph    
Max Gust Speed 21 mph    
Visibility 8 miles    
Events Rain    
Averages and records for this station are not official NWS values.
T = Trace of Precipitation, MM = Missing Value Source: NWS Daily Summary

Daily Weather History Graph

Daily Weather History Graph

Search for Another Location

Airport or City:

Trip Planner

Search our weather history database for the weather conditions in past years. The results will help you decide how hot, cold, wet, or windy it might be!

Date:

Astronomy

Apr. 29, 2013 Rise Set
Actual Time 6:05 AM EDT 7:53 PM EDT
Civil Twilight 5:37 AM EDT 8:21 PM EDT
Nautical Twilight 5:02 AM EDT 8:56 PM EDT
Astronomical Twilight 4:25 AM EDT 9:34 PM EDT
Moon No Moon Rise 9:24 AM EDT (4/29)
Length of Visible Light 14h 44m
Length of Day
13h 47m
Waning Gibbous, 80% of the Moon is Illuminated
Apr 29
Waning Gibbous
May 2
Last Quarter
May 9
New
May 18
First Quarter
May 25
Full

Hourly Weather History & Observations

Time (EDT) Temp. Dew Point Humidity Pressure Visibility Wind Dir Wind Speed Gust Speed Precip Events Conditions
12:48 AM 51.8 °F 51.8 °F 100% 30.20 in 10.0 mi Calm Calm - N/A   Light Drizzle
12:55 AM 52.9 °F 50.9 °F 93% 30.20 in 10.0 mi Calm Calm - 0.00 in   Light Drizzle
12:58 AM 53.6 °F 51.8 °F 94% 30.20 in 10.0 mi Calm Calm - N/A   Overcast
1:09 AM 53.6 °F 50.0 °F 88% 30.20 in 10.0 mi Calm Calm - N/A Rain Light Rain
1:55 AM 54.0 °F 53.8 °F 99% 30.18 in 10.0 mi East 3.5 mph - 0.00 in Rain Light Rain
2:55 AM 54.3 °F 54.0 °F 99% 30.17 in 10.0 mi SE 3.5 mph - 0.01 in Rain Light Rain
3:51 AM 55.4 °F 53.6 °F 94% 30.16 in 8.0 mi SE 6.9 mph - N/A Rain Light Rain
3:55 AM 54.5 °F 54.1 °F 99% 30.16 in 7.0 mi SE 5.8 mph - 0.03 in Rain Light Rain
3:58 AM 53.6 °F 53.6 °F 100% 30.16 in 6.0 mi SE 8.1 mph - N/A Rain Light Rain
4:08 AM 53.6 °F 53.6 °F 100% 30.16 in 5.0 mi SE 8.1 mph - N/A Rain Light Rain
4:13 AM 53.6 °F 53.6 °F 100% 30.16 in 5.0 mi SE 6.9 mph - N/A Rain Light Rain
4:16 AM 53.6 °F 53.6 °F 100% 30.16 in 5.0 mi SE 6.9 mph - N/A Rain Light Rain
4:18 AM 53.6 °F 53.6 °F 100% 30.16 in 5.0 mi SE 8.1 mph - N/A Rain Light Rain
4:22 AM 53.6 °F 53.6 °F 100% 30.16 in 5.0 mi SE 8.1 mph - N/A Rain Light Rain
4:23 AM 53.6 °F 53.6 °F 100% 30.16 in 5.0 mi SE 6.9 mph - N/A Rain Light Rain
4:24 AM 53.6 °F 53.6 °F 100% 30.16 in 5.0 mi SE 6.9 mph - N/A Rain Light Rain
4:50 AM 53.6 °F 53.6 °F 100% 30.16 in 7.0 mi SE 5.8 mph - N/A Rain Light Rain
4:52 AM 53.6 °F 53.6 °F 100% 30.16 in 7.0 mi SE 5.8 mph - N/A Rain Light Rain
4:55 AM 54.3 °F 54.3 °F 100% 30.16 in 7.0 mi ESE 5.8 mph - 0.09 in Rain Light Rain
4:58 AM 53.6 °F 53.6 °F 100% 30.16 in 7.0 mi ESE 4.6 mph - N/A Rain Light Rain
5:55 AM 54.7 °F 54.7 °F 100% 30.16 in 6.0 mi ESE 4.6 mph - 0.06 in Rain Light Rain
6:05 AM 55.4 °F 55.4 °F 100% 30.16 in 6.0 mi East 4.6 mph - N/A Rain Light Rain
6:06 AM 55.4 °F 55.4 °F 100% 30.16 in 7.0 mi East 4.6 mph - N/A Rain Light Rain
6:08 AM 55.4 °F 55.4 °F 100% 30.16 in 6.0 mi East 4.6 mph - N/A Rain Light Rain
6:12 AM 55.4 °F 55.4 °F 100% 30.16 in 6.0 mi East 5.8 mph - N/A Rain Light Rain
6:17 AM 55.4 °F 55.4 °F 100% 30.16 in 5.0 mi ESE 6.9 mph - N/A Rain Light Rain
6:55 AM 54.7 °F 54.7 °F 100% 30.16 in 5.0 mi ESE 8.1 mph - 0.06 in Rain Light Rain
7:55 AM 55.2 °F 55.2 °F 100% 30.16 in 5.0 mi ESE 11.5 mph - 0.04 in Rain Light Rain
8:55 AM 55.4 °F 55.4 °F 100% 30.15 in 6.0 mi ESE 12.7 mph - 0.07 in Rain Light Rain
8:59 AM 55.4 °F 55.4 °F 100% 30.15 in 6.0 mi ESE 9.2 mph 16.1 mph N/A Rain Light Rain
9:24 AM 55.4 °F 55.4 °F 100% 30.15 in 6.0 mi ESE 12.7 mph 18.4 mph N/A Rain Light Rain
9:55 AM 56.3 °F 56.3 °F 100% 30.14 in 7.0 mi ESE 10.4 mph - 0.02 in Rain Light Rain
10:36 AM 57.2 °F 57.2 °F 100% 30.14 in 6.0 mi ESE 9.2 mph - N/A Rain Light Rain
10:42 AM 57.2 °F 57.2 °F 100% 30.14 in 9.0 mi ESE 5.8 mph - N/A   Overcast
10:50 AM 57.2 °F 57.2 °F 100% 30.14 in 10.0 mi SE 9.2 mph - N/A   Overcast
10:53 AM 57.2 °F 57.2 °F 100% 30.14 in 10.0 mi ESE 9.2 mph - N/A   Light Drizzle
10:55 AM 57.9 °F 57.9 °F 100% 30.14 in 10.0 mi ESE 10.4 mph - 0.02 in   Light Drizzle
11:06 AM 57.2 °F 57.2 °F 100% 30.14 in 10.0 mi ESE 12.7 mph 17.3 mph N/A   Light Drizzle
11:08 AM 57.2 °F 57.2 °F 100% 30.14 in 10.0 mi SE 10.4 mph 17.3 mph N/A   Overcast
11:25 AM 59.0 °F 59.0 °F 100% 30.14 in 10.0 mi SE 10.4 mph - N/A Rain Light Rain
11:27 AM 59.0 °F 59.0 °F 100% 30.14 in 10.0 mi SE 10.4 mph - N/A Rain Light Rain
11:55 AM 58.5 °F 58.3 °F 99% 30.14 in 10.0 mi SE 11.5 mph - 0.01 in Rain Light Rain
11:57 AM 59.0 °F 59.0 °F 100% 30.14 in 10.0 mi SE 11.5 mph - N/A Rain Light Rain
11:59 AM 59.0 °F 59.0 °F 100% 30.14 in 10.0 mi SE 13.8 mph - N/A   Light Drizzle
12:00 PM 59.0 °F 59.0 °F 100% 30.14 in 10.0 mi SE 17.3 mph - N/A   Light Drizzle
12:02 PM 59.0 °F 59.0 °F 100% 30.14 in 10.0 mi SE 12.7 mph - N/A   Light Drizzle
12:08 PM 59.0 °F 59.0 °F 100% 30.14 in 10.0 mi SE 9.2 mph - N/A   Overcast
12:14 PM 59.0 °F 59.0 °F 100% 30.14 in 10.0 mi SE 11.5 mph - N/A Rain Light Rain
12:24 PM 59.0 °F 59.0 °F 100% 30.14 in 10.0 mi ESE 10.4 mph - N/A Rain Light Rain
12:34 PM 59.0 °F 59.0 °F 100% 30.13 in 10.0 mi SE 12.7 mph 20.7 mph N/A Rain Light Rain
12:35 PM 59.0 °F 59.0 °F 100% 30.13 in 10.0 mi SE 9.2 mph 20.7 mph N/A Rain Light Rain
12:45 PM 59.0 °F 59.0 °F 100% 30.13 in 9.0 mi SE 10.4 mph - N/A Rain Light Rain
12:55 PM 58.6 °F 58.3 °F 99% 30.13 in 8.0 mi ESE 9.2 mph - 0.01 in Rain Light Rain
1:09 PM 59.0 °F 59.0 °F 100% 30.13 in 6.0 mi ESE 10.4 mph 17.3 mph N/A Rain Light Rain
1:28 PM 57.2 °F 57.2 °F 100% 30.13 in 6.0 mi ESE 9.2 mph - N/A Rain Light Rain
1:55 PM 57.7 °F 57.7 °F 100% 30.12 in 6.0 mi SE 10.4 mph - 0.04 in Rain Light Rain
2:10 PM 57.2 °F 57.2 °F 100% 30.12 in 7.0 mi SE 12.7 mph - N/A Rain Light Rain
2:39 PM 57.2 °F 57.2 °F 100% 30.12 in 7.0 mi SE 11.5 mph - N/A Rain Light Rain
2:45 PM 57.2 °F 57.2 °F 100% 30.12 in 8.0 mi ESE 6.9 mph - N/A Rain Light Rain
2:55 PM 58.1 °F 58.1 °F 100% 30.12 in 7.0 mi ESE 10.4 mph - 0.03 in Rain Light Rain
3:01 PM 57.2 °F 57.2 °F 100% 30.12 in 8.0 mi ESE 8.1 mph - N/A Rain Light Rain
3:55 PM 57.2 °F 57.2 °F 100% 30.11 in 9.0 mi ESE 11.5 mph - 0.03 in Rain Light Rain
4:38 PM 57.2 °F 57.2 °F 100% 30.10 in 10.0 mi ESE 12.7 mph 17.3 mph N/A Rain Light Rain
4:47 PM 57.2 °F 57.2 °F 100% 30.10 in 9.0 mi ESE 10.4 mph 17.3 mph N/A Rain Light Rain
4:55 PM 56.5 °F 56.5 °F 100% 30.11 in 9.0 mi ESE 11.5 mph 18.4 mph 0.02 in Rain Light Rain
5:00 PM 57.2 °F 57.2 °F 100% 30.11 in 8.0 mi ESE 8.1 mph - N/A Rain Light Rain
5:25 PM 55.4 °F 55.4 °F 100% 30.11 in 8.0 mi ESE 8.1 mph - N/A Rain Light Rain
5:55 PM 55.9 °F 55.9 °F 100% 30.12 in 10.0 mi ESE 9.2 mph - 0.03 in Rain Light Rain
6:14 PM 55.4 °F 55.4 °F 100% 30.11 in 8.0 mi ESE 11.5 mph - N/A Rain Light Rain
6:40 PM 55.4 °F 55.4 °F 100% 30.11 in 7.0 mi ESE 10.4 mph - N/A   Overcast
6:55 PM 55.9 °F 55.9 °F 100% 30.11 in 10.0 mi ESE 9.2 mph - 0.02 in   Overcast
7:55 PM 55.2 °F 55.2 °F 100% 30.12 in 10.0 mi ESE 8.1 mph - N/A   Overcast
8:09 PM 55.4 °F 55.4 °F 100% 30.12 in 10.0 mi ESE 12.7 mph 19.6 mph N/A   Overcast
8:26 PM 55.4 °F 55.4 °F 100% 30.12 in 10.0 mi ESE 10.4 mph - N/A   Overcast
8:55 PM 54.5 °F 54.5 °F 100% 30.13 in 10.0 mi ESE 10.4 mph - N/A   Overcast
9:50 PM 53.6 °F 53.6 °F 100% 30.13 in 10.0 mi ESE 8.1 mph 18.4 mph N/A   Overcast
9:55 PM 54.3 °F 54.0 °F 99% 30.14 in 10.0 mi ESE 10.4 mph 18.4 mph N/A   Overcast
10:55 PM 54.7 °F 54.7 °F 100% 30.14 in 10.0 mi ESE 9.2 mph - N/A   Overcast
11:01 PM 55.4 °F 55.4 °F 100% 30.14 in 10.0 mi East 12.7 mph - N/A   Overcast
11:55 PM 55.0 °F 55.0 °F 100% 30.13 in 10.0 mi East 10.4 mph 19.6 mph N/A   Overcast
11:56 PM 55.4 °F 55.4 °F 100% 30.13 in 10.0 mi East 10.4 mph 19.6 mph N/A   Overcast